| time (UTC) | temp F | wind direction | speed MPH | gust MPH | rain 1hr in | rain 24hr in | rain mn in | humidity % | barometer mb |
| 20260502163032 | 57 | 290 | 0.0 | 3.0 | 0.00 | 0.00 | 0.00 | 65 | 1017.3 |
| 20260502161517 | 54 | 4 | 1.0 | 4.0 | 0.00 | 0.00 | 0.00 | 73 | 1017.5 |
| 20260502151505 | 49 | 197 | 0.0 | 1.0 | 0.00 | 0.00 | 0.00 | 90 | 1017.9 |
| 20260502123057 | 44 | 198 | 0.0 | 0.0 | 0.00 | 0.00 | 0.00 | 90 | 1017.4 |
| 20260502121554 | 45 | 198 | 0.0 | 0.0 | 0.00 | 0.00 | 0.00 | 90 | 1017.3 |
| 20260502120107 | 45 | 198 | 0.0 | 2.0 | 0.00 | 0.00 | 0.00 | 90 | 1017.3 |
| 20260502114557 | 45 | 198 | 0.0 | 2.0 | 0.00 | 0.00 | 0.00 | 90 | 1017.4 |
| 20260502113050 | 46 | 199 | 0.0 | 2.0 | 0.00 | 0.00 | 0.00 | 90 | 1017.5 |
| 20260502111553 | 46 | 197 | 0.0 | 2.0 | 0.00 | 0.00 | 0.00 | 90 | 1017.4 |
| 20260502110048 | 46 | 222 | 0.0 | 4.0 | 0.00 | 0.00 | 0.00 | 89 | 1017.4 |
| 20260502104552 | 46 | 117 | 0.0 | 3.0 | 0.00 | 0.00 | 0.00 | 88 | 1017.3 |
| 20260502103047 | 46 | 181 | 1.0 | 3.0 | 0.00 | 0.00 | 0.00 | 86 | 1017.7 |
| 20260502101548 | 46 | 223 | 0.0 | 2.0 | 0.00 | 0.00 | 0.00 | 86 | 1017.6 |
| 20260502070024 | 50 | 223 | 0.0 | 0.0 | 0.00 | 0.00 | 0.00 | 78 | 1017.2 |
| 20260502064520 | 50 | 224 | 0.0 | 0.0 | 0.00 | 0.00 | 0.00 | 78 | 1017.0 |
| 20260502063020 | 51 | 223 | 0.0 | 0.0 | 0.00 | 0.00 | 0.00 | 78 | 1016.9 |
| 20260502061519 | 51 | 223 | 0.0 | 0.0 | 0.00 | 0.00 | 0.00 | 76 | 1016.7 |
| 20260502060019 | 53 | 223 | 0.0 | 0.0 | 0.00 | 0.00 | 0.00 | 73 | 1016.7 |
| 20260502054521 | 53 | 223 | 0.0 | 0.0 | 0.00 | 0.00 | 0.00 | 72 | 1016.7 |
| 20260502053018 | 54 | 223 | 0.0 | 0.0 | 0.00 | 0.00 | 0.00 | 72 | 1016.7 |
| 20260502051532 | 55 | 223 | 0.0 | 0.0 | 0.00 | 0.00 | 0.00 | 73 | 1016.6 |
| 20260502050017 | 55 | 223 | 0.0 | 0.0 | 0.00 | 0.00 | 0.00 | 72 | 1016.5 |
| 20260502044517 | 55 | 223 | 0.0 | 0.0 | 0.00 | 0.00 | 0.00 | 72 | 1016.6 |
| 20260502043016 | 56 | 223 | 0.0 | 0.0 | 0.00 | 0.00 | 0.00 | 67 | 1016.5 |
| 20260502041516 | 58 | 223 | 0.0 | 0.0 | 0.00 | 0.00 | 0.00 | 64 | 1015.9 |
| 20260502040018 | 58 | 223 | 0.0 | 0.0 | 0.00 | 0.00 | 0.00 | 66 | 1015.8 |
| 20260502034520 | 60 | 223 | 0.0 | 0.0 | 0.00 | 0.00 | 0.00 | 60 | 1015.6 |
| 20260502033024 | 61 | 223 | 0.0 | 1.0 | 0.00 | 0.00 | 0.00 | 58 | 1015.2 |
| 20260502031514 | 63 | 223 | 0.0 | 1.0 | 0.00 | 0.00 | 0.00 | 57 | 1015.1 |
| 20260502030014 | 64 | 223 | 0.0 | 0.0 | 0.00 | 0.00 | 0.00 | 54 | 1015.0 |
| 20260502024513 | 66 | 223 | 0.0 | 2.0 | 0.00 | 0.00 | 0.00 | 51 | 1014.8 |
| 20260502023013 | 68 | 223 | 0.0 | 1.0 | 0.00 | 0.00 | 0.00 | 47 | 1014.6 |
| 20260502021513 | 70 | 224 | 0.0 | 1.0 | 0.00 | 0.00 | 0.00 | 43 | 1014.6 |
| 20260502020011 | 71 | 223 | 0.0 | 1.0 | 0.00 | 0.00 | 0.00 | 39 | 1014.5 |
| 20260502014513 | 73 | 223 | 0.0 | 2.0 | 0.00 | 0.00 | 0.00 | 36 | 1014.5 |
| 20260502013009 | 74 | 223 | 0.0 | 4.0 | 0.00 | 0.00 | 0.00 | 31 | 1014.5 |
| 20260502011508 | 75 | 225 | 0.0 | 6.0 | 0.00 | 0.00 | 0.00 | 29 | 1014.5 |
| 20260502010007 | 76 | 207 | 2.0 | 8.0 | 0.00 | 0.00 | 0.00 | 28 | 1014.5 |
| 20260502004506 | 77 | 228 | 1.0 | 7.0 | 0.00 | 0.00 | 0.00 | 27 | 1014.5 |
| 20260502003007 | 76 | 144 | 3.0 | 12.0 | 0.00 | 0.00 | 0.00 | 27 | 1014.7 |
| 20260502001502 | 76 | 221 | 5.0 | 9.0 | 0.00 | 0.00 | 0.00 | 26 | 1014.7 |
| 20260502000001 | 77 | 226 | 5.0 | 9.0 | 0.00 | 0.00 | 0.00 | 26 | 1014.8 |
| 20260501234600 | 77 | 228 | 4.0 | 11.0 | 0.00 | 0.00 | 0.00 | 25 | 1014.9 |
| 20260501233059 | 76 | 261 | 1.0 | 10.0 | 0.00 | 0.00 | 0.00 | 27 | 1014.9 |
| 20260501231559 | 75 | 233 | 4.0 | 11.0 | 0.00 | 0.00 | 0.00 | 28 | 1015.1 |
| 20260501230050 | 74 | 114 | 3.0 | 6.0 | 0.00 | 0.00 | 0.00 | 27 | 1015.4 |
| 20260501224549 | 75 | 251 | 2.0 | 10.0 | 0.00 | 0.00 | 0.00 | 27 | 1015.5 |
| 20260501223048 | 74 | 232 | 0.0 | 5.0 | 0.00 | 0.00 | 0.00 | 29 | 1015.7 |
| 20260501221545 | 75 | 209 | 2.0 | 6.0 | 0.00 | 0.00 | 0.00 | 29 | 1015.9 |
| 20260501220044 | 75 | 233 | 3.0 | 10.0 | 0.00 | 0.00 | 0.00 | 29 | 1015.9 |
| 20260501214556 | 73 | 240 | 0.0 | 7.0 | 0.00 | 0.00 | 0.00 | 29 | 1016.1 |
| 20260501213049 | 74 | 154 | 1.0 | 4.0 | 0.00 | 0.00 | 0.00 | 28 | 1016.2 |
| 20260501211542 | 73 | 215 | 2.0 | 7.0 | 0.00 | 0.00 | 0.00 | 28 | 1016.2 |
| 20260501210040 | 74 | 27 | 0.0 | 9.0 | 0.00 | 0.00 | 0.00 | 27 | 1016.3 |
| 20260501204539 | 75 | 45 | 1.0 | 12.0 | 0.00 | 0.00 | 0.00 | 25 | 1016.4 |
| 20260501203035 | 74 | 215 | 1.0 | 7.0 | 0.00 | 0.00 | 0.00 | 28 | 1016.6 |
| 20260501201541 | 71 | 160 | 3.0 | 6.0 | 0.00 | 0.00 | 0.00 | 29 | 1016.7 |
| 20260501200032 | 73 | 70 | 3.0 | 6.0 | 0.00 | 0.00 | 0.00 | 28 | 1016.8 |
| 20260501194534 | 74 | 237 | 3.0 | 6.0 | 0.00 | 0.00 | 0.00 | 30 | 1017.0 |
| 20260501193031 | 71 | 215 | 3.0 | 6.0 | 0.00 | 0.00 | 0.00 | 33 | 1017.2 |
| 20260501191526 | 69 | 354 | 0.0 | 5.0 | 0.00 | 0.00 | 0.00 | 34 | 1017.4 |
| 20260501190019 | 68 | 319 | 2.0 | 5.0 | 0.00 | 0.00 | 0.00 | 35 | 1017.5 |
| 20260501184516 | 66 | 77 | 0.0 | 4.0 | 0.00 | 0.00 | 0.00 | 39 | 1017.7 |
| 20260501183018 | 66 | 66 | 2.0 | 4.0 | 0.00 | 0.00 | 0.00 | 39 | 1018.1 |
| 20260501181509 | 65 | 145 | 2.0 | 5.0 | 0.00 | 0.00 | 0.00 | 41 | 1018.2 |
| 20260501180010 | 63 | 102 | 1.0 | 6.0 | 0.00 | 0.00 | 0.00 | 43 | 1018.4 |
| 20260501174501 | 61 | 330 | 2.0 | 5.0 | 0.00 | 0.00 | 0.00 | 46 | 1018.6 |
| 20260501173108 | 60 | 343 | 0.0 | 3.0 | 0.00 | 0.00 | 0.00 | 50 | 1018.9 |
| 20260501171559 | 58 | 91 | 0.0 | 4.0 | 0.00 | 0.00 | 0.00 | 53 | 1019.0 |